Location: Ambrosina
(19.9365°S, 43.9833°W)
Time: 09:31:57
(UTC+00:00)

CZ-4B R/B - Pass Details

Date: 11 May 2021
Orbit: 385 x 454 km, 97.6° (Epoch: 22 June)

Event Time Altitude Azimuth Distance (km) Brightness Sun altitude
Rises 20:58:26 0° 5° (N) 2,267 5.1 -7.5°
Reaches altitude 10° 21:00:24 10° 0° (N) 1,414 4.1 -7.9°
Maximum altitude 21:03:21 56° 281° (W) 466 1.9 -8.6°
Drops below altitude 10° 21:06:21 10° 201° (SSW) 1,426 4.0 -9.2°
Sets 21:08:21 0° 196° (SSW) 2,289 5.0 -9.7°
